HISAKI (SPRINT-A)

Last updated on Sun Apr 12 2026 00:03:41 GMT+0000 (Coordinated Universal Time)

1 39253U 13049A 26101.54999250 .00000127 00000+0 80749-4 0 9993 2 39253 29.7189 198.7960 0136501 196.6568 162.9488 13.55535851622376
UTC large
Height (km)
Speed (km/s)
/
Latitude / Longitude
Inclination (degrees)
Orbital Period (minutes)
Azimuth
Elevation
Range (km)
Doppler Factor

Next 0 passes for location: London (51.5072 / 0.1276)

Sorry there are no passes over London.
HISAKI (SPRINT-A)